QPF
0.09 0.11 0.11 0.12 0.13 0.16 0.16 0.14 0.12 0.12 0.12 0.11 0.12 0.15 0.18 0.20 0.23 0.24 0.20 0.14 0.09 0.07 0.05 0.04 0.03 0.03 0.03 0.02 0.01 0.01 0.01 0.03 0.04 0.04 0.04 0.03 0.02 0.03 0.02 0.02 0.02 0.02 0.02
0.10 0.09 0.09 0.10 0.11 0.14 0.16 0.15 0.13 0.13 0.14 0.14 0.14 0.15 0.20 0.23 0.22 0.21 0.19 0.16 0.10 0.06 0.04 0.03 0.03 0.03 0.02 0.01 0.02 0.01 0.02 0.03 0.03 0.03 0.03 0.02 0.02 0.01 0.01 0.02 0.02 0.03 0.02
0.07 0.07 0.09 0.10 0.10 0.10 0.11 0.12 0.13 0.12 0.13 0.14 0.15 0.15 0.16 0.17 0.17 0.17 0.18 0.15 0.09 0.06 0.04 0.03 0.03 0.02 0.01 0.01 0.02 0.02 0.02 0.03 0.03 0.03 0.02 0.02 0.01 0.01 0.01 0.01 0.02 0.02 0.02
0.04 0.05 0.06 0.08 0.09 0.10 0.09 0.09 0.10 0.10 0.12 0.14 0.16 0.15 0.14 0.15 0.14 0.14 0.13 0.11 0.10 0.07 0.04 0.03 0.03 0.02 0.01 0.02 0.03 0.03 0.05 0.05 0.05 0.04 0.02 0.02 0.01 0.02 0.01 0.01 0.02 0.02 0.03
0.02 0.03 0.06 0.07 0.07 0.10 0.10 0.09 0.11 0.11 0.12 0.14 0.14 0.15 0.15 0.14 0.13 0.11 0.10 0.10 0.08 0.08 0.06 0.04 0.04 0.03 0.03 0.03 0.02 0.02 0.02 0.03 0.04 0.05 0.04 0.02 0.02 0.02 0.02 0.02 0.02 0.02 0.02
0.03 0.05 0.06 0.06 0.05 0.09 0.09 0.08 0.10 0.11 0.11 0.11 0.10 0.13 0.15 0.14 0.12 0.12 0.10 0.08 0.07 0.07 0.06 0.05 0.06 0.05 0.05 0.03 0.02 0.02 0.03 0.03 0.04 0.04 0.03 0.03 0.04 0.03 0.03 0.03 0.02 0.02 0.02
0.05 0.06 0.07 0.07 0.05 0.07 0.08 0.06 0.07 0.09 0.09 0.08 0.10 0.13 0.15 0.13 0.12 0.12 0.11 0.09 0.06 0.05 0.05 0.05 0.06 0.07 0.06 0.05 0.05 0.03 0.02 0.02 0.03 0.02 0.02 0.03 0.03 0.03 0.03 0.03 0.03 0.03 0.04
0.05 0.06 0.08 0.08 0.06 0.08 0.08 0.07 0.08 0.09 0.09 0.08 0.09 0.14 0.16 0.16 0.12 0.09 0.10 0.08 0.07 0.07 0.06 0.05 0.06 0.08 0.06 0.06 0.05 0.03 0.01 0.02 0.02 0.02 0.02 0.02 0.02 0.01 0.01 0.01 0.01 0.03 0.04
0.04 0.06 0.06 0.07 0.07 0.08 0.09 0.09 0.08 0.09 0.11 0.09 0.07 0.11 0.14 0.15 0.13 0.11 0.09 0.09 0.08 0.08 0.07 0.06 0.06 0.07 0.07 0.08 0.08 0.06 0.03 0.02 0.02 0.03 0.02 0.02 0.01 0.01 0.01 0.01 0.01 0.01 0.02
0.03 0.04 0.05 0.07 0.09 0.08 0.09 0.08 0.08 0.10 0.11 0.10 0.08 0.07 0.06 0.09 0.11 0.11 0.08 0.06 0.05 0.04 0.05 0.05 0.05 0.06 0.06 0.09 0.09 0.06 0.03 0.02 0.02 0.03 0.02 0.02 0.01 0.01 0.01 0.01 0.01 0.01 0.01
0.02 0.02 0.03 0.06 0.09 0.08 0.08 0.08 0.10 0.10 0.09 0.10 0.10 0.08 0.07 0.10 0.10 0.13 0.12 0.09 0.06 0.05 0.04 0.04 0.05 0.06 0.06 0.07 0.07 0.05 0.04 0.04 0.03 0.03 0.03 0.02 0.01 0.01 0.01 0.01 0.02 0.02 0.03
0.03 0.03 0.04 0.04 0.05 0.06 0.07 0.08 0.09 0.08 0.09 0.10 0.09 0.08 0.08 0.09 0.12 0.14 0.14 0.12 0.11 0.08 0.06 0.05 0.08 0.10 0.11 0.07 0.05 0.05 0.05 0.06 0.04 0.03 0.02 0.01 0.01 0.01 0.01 0.01 0.02 0.03 0.04
0.04 0.05 0.06 0.06 0.06 0.05 0.05 0.07 0.08 0.08 0.10 0.09 0.08 0.09 0.09 0.08 0.09 0.11 0.13 0.12 0.13 0.10 0.07 0.06 0.05 0.05 0.06 0.06 0.07 0.06 0.04 0.04 0.04 0.04 0.02 0.01 0.01 0.00 0.00 0.01 0.01 0.02 0.02
0.04 0.04 0.05 0.06 0.06 0.05 0.06 0.09 0.08 0.09 0.10 0.10 0.09 0.11 0.10 0.08 0.08 0.09 0.11 0.11 0.12 0.13 0.11 0.09 0.06 0.06 0.07 0.06 0.06 0.07 0.03 0.04 0.04 0.05 0.04 0.02 0.01 0.01 0.00 0.00 0.01 0.01 0.01
0.05 0.05 0.05 0.07 0.09 0.08 0.08 0.09 0.09 0.09 0.10 0.10 0.09 0.10 0.09 0.08 0.07 0.07 0.09 0.11 0.12 0.13 0.12 0.09 0.08 0.07 0.08 0.07 0.09 0.06 0.05 0.06 0.05 0.04 0.04 0.03 0.01 0.00 0.00 0.01 0.01 0.01 0.00
0.05 0.05 0.05 0.07 0.09 0.10 0.10 0.10 0.08 0.07 0.08 0.08 0.07 0.07 0.07 0.07 0.08 0.09 0.10 0.14 0.16 0.17 0.13 0.09 0.06 0.06 0.07 0.09 0.11 0.11 0.09 0.06 0.04 0.03 0.02 0.01 0.01 0.00 0.00 0.00 0.00 0.00 0.00
0.05 0.05 0.05 0.06 0.06 0.06 0.08 0.08 0.07 0.07 0.07 0.07 0.07 0.06 0.07 0.08 0.08 0.08 0.08 0.08 0.10 0.12 0.11 0.07 0.05 0.05 0.05 0.05 0.04 0.04 0.05 0.05 0.03 0.02 0.02 0.01 0.01 0.00 0.00 0.00 0.00 0.00 0.00
0.05 0.05 0.05 0.06 0.05 0.05 0.05 0.05 0.05 0.07 0.08 0.08 0.09 0.07 0.07 0.09 0.08 0.06 0.06 0.06 0.07 0.08 0.08 0.07 0.05 0.05 0.05 0.04 0.04 0.04 0.04 0.03 0.02 0.02 0.02 0.01 0.01 0.01 0.00 0.00 0.00 0.00 0.00
0.04 0.03 0.03 0.03 0.04 0.05 0.05 0.05 0.05 0.06 0.06 0.06 0.07 0.05 0.05 0.06 0.06 0.06 0.05 0.06 0.07 0.07 0.08 0.06 0.05 0.06 0.06 0.06 0.05 0.04 0.04 0.03 0.03 0.02 0.03 0.02 0.01 0.00 0.00 0.00 0.00 0.00 0.00
0.02 0.02 0.02 0.03 0.03 0.03 0.03 0.03 0.04 0.05 0.05 0.05 0.05 0.05 0.05 0.04 0.05 0.05 0.04 0.05 0.06 0.06 0.07 0.07 0.08 0.08 0.06 0.06 0.06 0.04 0.03 0.03 0.03 0.03 0.02 0.02 0.01 0.00 0.00 0.00 0.01 0.01 0.01
0.01 0.01 0.02 0.03 0.02 0.01 0.01 0.02 0.02 0.03 0.04 0.04 0.03 0.04 0.04 0.04 0.04 0.04 0.03 0.04 0.05 0.04 0.05 0.07 0.07 0.07 0.06 0.05 0.04 0.03 0.03 0.03 0.03 0.03 0.03 0.02 0.02 0.02 0.02 0.02 0.01 0.01 0.01
0.01 0.03 0.02 0.01 0.01 0.01 0.01 0.01 0.03 0.04 0.04 0.03 0.03 0.03 0.03 0.02 0.02 0.02 0.02 0.03 0.04 0.06 0.08 0.08 0.09 0.09 0.07 0.06 0.05 0.04 0.04 0.04 0.03 0.03 0.03 0.03 0.03 0.03 0.02 0.02 0.02 0.01 0.01
0.02 0.02 0.02 0.02 0.02 0.02 0.02 0.01 0.02 0.03 0.03 0.03 0.03 0.03 0.02 0.02 0.03 0.03 0.03 0.04 0.04 0.05 0.06 0.07 0.08 0.06 0.06 0.05 0.05 0.05 0.05 0.04 0.04 0.04 0.04 0.03 0.03 0.03 0.02 0.02 0.02 0.02 0.01
0.03 0.02 0.03 0.03 0.04 0.04 0.04 0.02 0.01 0.01 0.02 0.02 0.02 0.02 0.03 0.04 0.04 0.05 0.05 0.05 0.05 0.04 0.04 0.04 0.03 0.03 0.04 0.05 0.05 0.05 0.05 0.06 0.04 0.04 0.05 0.03 0.03 0.03 0.02 0.02 0.02 0.01 0.01
0.04 0.03 0.03 0.04 0.04 0.04 0.04 0.03 0.02 0.02 0.02 0.02 0.02 0.02 0.03 0.03 0.03 0.03 0.03 0.03 0.03 0.03 0.04 0.04 0.03 0.04 0.03 0.03 0.04 0.05 0.06 0.06 0.04 0.04 0.05 0.04 0.03 0.03 0.03 0.03 0.02 0.01 0.01
0.04 0.05 0.05 0.04 0.05 0.05 0.05 0.05 0.05 0.05 0.05 0.04 0.05 0.04 0.03 0.03 0.02 0.02 0.03 0.03 0.02 0.02 0.03 0.04 0.03 0.03 0.03 0.03 0.03 0.04 0.05 0.05 0.04 0.03 0.04 0.04 0.03 0.04 0.03 0.03 0.03 0.02 0.02
MSLP
1012.97 1013.14 1013.25 1013.32 1013.35 1013.38 1013.41 1013.44 1013.48 1013.48 1013.45 1013.36 1013.21 1013.03 1012.84 1012.68 1012.59 1012.61 1012.75 1012.99 1013.31 1013.69 1014.09 1014.46 1014.80 1015.09 1015.33 1015.53 1015.70 1015.86 1016.01 1016.18 1016.36 1016.56 1016.78 1017.02 1017.28 1017.53 1017.76 1017.97 1018.14 1018.27 1018.37
1012.82 1012.97 1013.07 1013.13 1013.15 1013.15 1013.14 1013.15 1013.15 1013.15 1013.12 1013.05 1012.92 1012.75 1012.54 1012.35 1012.19 1012.11 1012.13 1012.26 1012.50 1012.81 1013.19 1013.59 1013.98 1014.33 1014.64 1014.90 1015.11 1015.28 1015.44 1015.59 1015.77 1015.97 1016.22 1016.49 1016.79 1017.09 1017.37 1017.62 1017.80 1017.94 1018.04
1012.68 1012.81 1012.90 1012.94 1012.95 1012.94 1012.93 1012.92 1012.93 1012.93 1012.91 1012.84 1012.73 1012.55 1012.32 1012.06 1011.82 1011.62 1011.52 1011.52 1011.64 1011.88 1012.21 1012.61 1013.03 1013.44 1013.82 1014.13 1014.38 1014.58 1014.75 1014.91 1015.09 1015.31 1015.57 1015.88 1016.22 1016.57 1016.90 1017.18 1017.41 1017.57 1017.69
1012.55 1012.65 1012.72 1012.76 1012.78 1012.78 1012.79 1012.79 1012.81 1012.83 1012.82 1012.77 1012.65 1012.45 1012.19 1011.87 1011.53 1011.22 1010.98 1010.85 1010.86 1011.00 1011.27 1011.64 1012.06 1012.50 1012.91 1013.27 1013.57 1013.80 1013.99 1014.16 1014.35 1014.58 1014.87 1015.21 1015.59 1015.97 1016.34 1016.66 1016.92 1017.12 1017.28
1012.43 1012.49 1012.55 1012.60 1012.64 1012.68 1012.71 1012.76 1012.81 1012.85 1012.85 1012.81 1012.69 1012.47 1012.17 1011.79 1011.37 1010.96 1010.60 1010.35 1010.24 1010.28 1010.46 1010.78 1011.17 1011.60 1012.02 1012.40 1012.71 1012.97 1013.18 1013.37 1013.58 1013.83 1014.14 1014.50 1014.89 1015.30 1015.70 1016.04 1016.33 1016.56 1016.75
1012.33 1012.35 1012.40 1012.47 1012.54 1012.63 1012.71 1012.80 1012.89 1012.95 1012.98 1012.93 1012.81 1012.58 1012.25 1011.83 1011.36 1010.87 1010.43 1010.08 1009.86 1009.80 1009.88 1010.11 1010.43 1010.81 1011.20 1011.55 1011.86 1012.13 1012.35 1012.56 1012.79 1013.06 1013.38 1013.75 1014.16 1014.57 1014.97 1015.32 1015.62 1015.87 1016.08
1012.27 1012.26 1012.31 1012.39 1012.50 1012.64 1012.77 1012.91 1013.03 1013.11 1013.14 1013.10 1012.97 1012.74 1012.40 1011.97 1011.48 1010.96 1010.47 1010.05 1009.75 1009.59 1009.56 1009.67 1009.89 1010.17 1010.47 1010.77 1011.04 1011.28 1011.51 1011.73 1011.98 1012.27 1012.61 1012.98 1013.39 1013.79 1014.17 1014.51 1014.79 1015.03 1015.24
1012.29 1012.26 1012.29 1012.40 1012.54 1012.71 1012.89 1013.05 1013.19 1013.28 1013.31 1013.26 1013.13 1012.90 1012.57 1012.16 1011.69 1011.19 1010.70 1010.25 1009.89 1009.63 1009.49 1009.46 1009.53 1009.67 1009.84 1010.04 1010.24 1010.44 1010.64 1010.87 1011.14 1011.45 1011.80 1012.19 1012.59 1012.97 1013.33 1013.63 1013.89 1014.10 1014.29
1012.43 1012.37 1012.40 1012.51 1012.67 1012.85 1013.05 1013.22 1013.35 1013.42 1013.43 1013.37 1013.24 1013.03 1012.74 1012.38 1011.96 1011.51 1011.05 1010.60 1010.20 1009.86 1009.60 1009.42 1009.31 1009.27 1009.28 1009.34 1009.43 1009.56 1009.74 1009.97 1010.25 1010.59 1010.97 1011.37 1011.77 1012.15 1012.48 1012.75 1012.97 1013.14 1013.30
1012.68 1012.61 1012.63 1012.73 1012.88 1013.06 1013.24 1013.38 1013.48 1013.53 1013.50 1013.42 1013.29 1013.10 1012.86 1012.57 1012.23 1011.85 1011.45 1011.03 1010.61 1010.19 1009.81 1009.47 1009.17 1008.93 1008.76 1008.65 1008.61 1008.66 1008.79 1009.01 1009.32 1009.69 1010.11 1010.54 1010.96 1011.34 1011.66 1011.91 1012.10 1012.24 1012.36
1013.05 1012.97 1012.97 1013.04 1013.17 1013.32 1013.45 1013.55 1013.60 1013.59 1013.53 1013.42 1013.28 1013.11 1012.92 1012.71 1012.46 1012.17 1011.83 1011.45 1011.01 1010.54 1010.04 1009.54 1009.05 1008.61 1008.24 1007.96 1007.79 1007.74 1007.82 1008.03 1008.36 1008.77 1009.23 1009.71 1010.17 1010.58 1010.91 1011.16 1011.34 1011.46 1011.56
1013.48 1013.39 1013.38 1013.42 1013.51 1013.61 1013.69 1013.72 1013.71 1013.64 1013.53 1013.39 1013.24 1013.09 1012.95 1012.80 1012.64 1012.43 1012.16 1011.81 1011.37 1010.84 1010.24 1009.60 1008.94 1008.31 1007.75 1007.31 1007.00 1006.86 1006.88 1007.07 1007.41 1007.85 1008.36 1008.89 1009.40 1009.85 1010.22 1010.50 1010.70 1010.83 1010.92
1013.93 1013.84 1013.81 1013.82 1013.87 1013.91 1013.93 1013.91 1013.83 1013.70 1013.54 1013.37 1013.21 1013.07 1012.96 1012.87 1012.77 1012.63 1012.41 1012.09 1011.64 1011.07 1010.40 1009.63 1008.84 1008.05 1007.34 1006.75 1006.32 1006.09 1006.05 1006.21 1006.54 1006.99 1007.53 1008.11 1008.66 1009.16 1009.58 1009.91 1010.15 1010.31 1010.43
1014.34 1014.26 1014.22 1014.21 1014.21 1014.21 1014.18 1014.10 1013.97 1013.80 1013.60 1013.41 1013.23 1013.10 1013.01 1012.95 1012.88 1012.78 1012.60 1012.30 1011.85 1011.26 1010.53 1009.69 1008.80 1007.91 1007.08 1006.38 1005.85 1005.52 1005.41 1005.52 1005.81 1006.25 1006.78 1007.36 1007.94 1008.47 1008.94 1009.32 1009.62 1009.84 1010.01
1014.66 1014.60 1014.56 1014.54 1014.53 1014.50 1014.44 1014.33 1014.17 1013.97 1013.74 1013.53 1013.34 1013.20 1013.11 1013.06 1013.01 1012.92 1012.76 1012.47 1012.03 1011.43 1010.69 1009.82 1008.88 1007.94 1007.04 1006.27 1005.66 1005.25 1005.05 1005.07 1005.29 1005.66 1006.13 1006.67 1007.22 1007.75 1008.24 1008.67 1009.03 1009.33 1009.57
1014.87 1014.84 1014.82 1014.81 1014.80 1014.77 1014.70 1014.58 1014.42 1014.20 1013.97 1013.74 1013.54 1013.39 1013.28 1013.22 1013.16 1013.07 1012.91 1012.64 1012.22 1011.64 1010.91 1010.06 1009.13 1008.18 1007.27 1006.46 1005.79 1005.30 1005.01 1004.92 1005.01 1005.25 1005.61 1006.04 1006.51 1006.99 1007.46 1007.90 1008.31 1008.68 1009.00
1014.98 1014.98 1014.99 1015.01 1015.02 1015.01 1014.96 1014.86 1014.70 1014.50 1014.27 1014.03 1013.82 1013.65 1013.52 1013.43 1013.35 1013.25 1013.09 1012.82 1012.43 1011.90 1011.23 1010.43 1009.56 1008.65 1007.76 1006.95 1006.24 1005.68 1005.28 1005.05 1004.97 1005.04 1005.22 1005.48 1005.81 1006.18 1006.58 1007.00 1007.42 1007.84 1008.25
1014.99 1015.04 1015.09 1015.14 1015.19 1015.21 1015.20 1015.12 1014.99 1014.81 1014.59 1014.35 1014.13 1013.94 1013.79 1013.67 1013.56 1013.44 1013.28 1013.03 1012.68 1012.21 1011.61 1010.91 1010.12 1009.29 1008.45 1007.65 1006.93 1006.30 1005.79 1005.40 1005.14 1004.99 1004.95 1005.01 1005.14 1005.36 1005.64 1005.99 1006.39 1006.84 1007.31
1014.96 1015.03 1015.12 1015.22 1015.31 1015.37 1015.39 1015.35 1015.25 1015.09 1014.88 1014.65 1014.43 1014.22 1014.04 1013.89 1013.76 1013.63 1013.46 1013.24 1012.94 1012.53 1012.03 1011.42 1010.74 1009.99 1009.23 1008.46 1007.73 1007.04 1006.42 1005.88 1005.43 1005.07 1004.80 1004.62 1004.54 1004.57 1004.70 1004.94 1005.29 1005.73 1006.24
1014.88 1014.98 1015.11 1015.24 1015.36 1015.46 1015.51 1015.50 1015.43 1015.29 1015.09 1014.87 1014.64 1014.42 1014.23 1014.06 1013.91 1013.77 1013.61 1013.42 1013.16 1012.82 1012.40 1011.89 1011.30 1010.65 1009.95 1009.22 1008.48 1007.76 1007.05 1006.38 1005.76 1005.20 1004.71 1004.32 1004.03 1003.86 1003.84 1003.96 1004.23 1004.64 1005.15
1014.78 1014.90 1015.04 1015.19 1015.34 1015.47 1015.54 1015.55 1015.49 1015.36 1015.18 1014.97 1014.74 1014.52 1014.31 1014.14 1013.98 1013.84 1013.69 1013.52 1013.29 1013.01 1012.65 1012.22 1011.71 1011.13 1010.48 1009.79 1009.06 1008.31 1007.54 1006.77 1006.02 1005.31 1004.66 1004.08 1003.62 1003.29 1003.12 1003.12 1003.30 1003.65 1004.15
1014.66 1014.77 1014.92 1015.08 1015.24 1015.37 1015.45 1015.47 1015.42 1015.30 1015.12 1014.92 1014.69 1014.47 1014.27 1014.10 1013.95 1013.81 1013.67 1013.50 1013.30 1013.05 1012.74 1012.35 1011.88 1011.34 1010.74 1010.07 1009.35 1008.58 1007.78 1006.96 1006.14 1005.33 1004.58 1003.89 1003.31 1002.86 1002.57 1002.47 1002.56 1002.85 1003.30
1014.51 1014.60 1014.74 1014.90 1015.06 1015.19 1015.27 1015.28 1015.23 1015.10 1014.93 1014.73 1014.51 1014.30 1014.11 1013.94 1013.79 1013.65 1013.51 1013.35 1013.16 1012.91 1012.60 1012.23 1011.77 1011.25 1010.65 1010.00 1009.28 1008.51 1007.71 1006.88 1006.04 1005.21 1004.42 1003.68 1003.05 1002.54 1002.18 1002.00 1002.02 1002.24 1002.64
1014.33 1014.40 1014.53 1014.68 1014.82 1014.94 1015.01 1015.01 1014.94 1014.82 1014.64 1014.44 1014.22 1014.02 1013.83 1013.66 1013.52 1013.38 1013.23 1013.06 1012.84 1012.58 1012.25 1011.85 1011.38 1010.84 1010.24 1009.57 1008.86 1008.11 1007.32 1006.51 1005.69 1004.89 1004.12 1003.41 1002.78 1002.26 1001.88 1001.67 1001.64 1001.80 1002.14
1014.14 1014.20 1014.31 1014.45 1014.58 1014.69 1014.74 1014.72 1014.64 1014.50 1014.31 1014.10 1013.88 1013.67 1013.48 1013.30 1013.14 1012.99 1012.82 1012.62 1012.37 1012.07 1011.70 1011.26 1010.75 1010.18 1009.55 1008.87 1008.15 1007.40 1006.64 1005.87 1005.11 1004.36 1003.65 1003.00 1002.42 1001.94 1001.58 1001.36 1001.31 1001.43 1001.71
1013.97 1014.02 1014.13 1014.26 1014.39 1014.48 1014.52 1014.48 1014.38 1014.21 1014.00 1013.76 1013.52 1013.29 1013.08 1012.88 1012.70 1012.51 1012.30 1012.06 1011.78 1011.43 1011.01 1010.52 1009.97 1009.35 1008.68 1007.98 1007.25 1006.51 1005.76 1005.03 1004.32 1003.64 1003.01 1002.43 1001.92 1001.50 1001.18 1000.99 1000.94 1001.03 1001.27
Thickness
5769 5768 5767 5766 5765 5765 5764 5763 5763 5763 5763 5763 5763 5764 5763 5762 5761 5758 5754 5752 5750 5748 5747 5745 5744 5742 5741 5740 5740 5739 5738 5737 5736 5734 5732 5731 5730 5728 5727 5725 5724 5723 5722
5769 5769 5768 5767 5767 5766 5765 5763 5763 5763 5763 5762 5762 5762 5762 5760 5759 5756 5753 5751 5749 5748 5747 5745 5744 5743 5741 5740 5740 5739 5738 5737 5735 5734 5732 5731 5730 5728 5727 5725 5724 5723 5721
5769 5769 5768 5767 5767 5766 5765 5764 5762 5762 5761 5761 5760 5760 5759 5758 5757 5756 5754 5751 5749 5747 5746 5745 5744 5743 5742 5740 5739 5738 5737 5736 5735 5733 5732 5730 5729 5727 5726 5725 5724 5722 5721
5769 5769 5768 5767 5767 5766 5765 5763 5762 5761 5760 5759 5758 5758 5758 5757 5756 5756 5754 5752 5750 5749 5747 5745 5744 5743 5742 5740 5740 5738 5737 5736 5734 5732 5731 5729 5728 5727 5726 5724 5723 5722 5720
5770 5769 5769 5767 5767 5765 5764 5763 5761 5759 5757 5757 5756 5756 5757 5756 5756 5756 5755 5753 5752 5750 5748 5745 5744 5742 5741 5740 5739 5738 5737 5735 5734 5732 5730 5729 5727 5726 5725 5724 5722 5721 5719
5771 5770 5769 5767 5767 5765 5763 5762 5759 5758 5757 5756 5756 5755 5755 5755 5755 5755 5755 5754 5753 5751 5749 5746 5744 5741 5740 5739 5738 5737 5736 5734 5733 5731 5730 5728 5727 5726 5724 5723 5721 5720 5718
5771 5770 5770 5768 5767 5765 5763 5762 5760 5757 5755 5756 5752 5748 5750 5754 5754 5754 5754 5753 5752 5751 5749 5747 5745 5743 5741 5739 5738 5737 5735 5734 5733 5731 5729 5728 5726 5725 5724 5722 5720 5718 5717
5772 5771 5769 5768 5767 5765 5763 5762 5760 5756 5755 5757 5751 5745 5740 5742 5748 5753 5751 5750 5750 5750 5749 5747 5746 5744 5742 5740 5738 5736 5735 5734 5732 5731 5729 5727 5726 5724 5723 5721 5719 5717 5716
5773 5771 5770 5769 5768 5766 5763 5762 5761 5757 5753 5755 5756 5749 5740 5736 5740 5746 5749 5750 5749 5749 5748 5748 5746 5744 5742 5740 5738 5736 5735 5733 5732 5730 5728 5726 5724 5723 5721 5720 5718 5717 5715
5773 5771 5770 5769 5767 5766 5764 5763 5762 5760 5756 5752 5754 5755 5753 5749 5740 5737 5743 5747 5748 5748 5748 5748 5746 5744 5742 5740 5738 5736 5734 5732 5731 5729 5727 5725 5723 5721 5720 5718 5717 5715 5714
5773 5772 5770 5769 5767 5766 5764 5763 5762 5760 5758 5754 5753 5753 5752 5750 5748 5740 5735 5739 5743 5746 5747 5746 5745 5743 5742 5740 5738 5736 5734 5731 5729 5728 5725 5723 5722 5720 5718 5716 5715 5713 5712
5773 5772 5771 5769 5767 5766 5764 5763 5762 5760 5758 5756 5754 5754 5751 5748 5745 5743 5738 5737 5738 5742 5746 5746 5744 5743 5741 5740 5738 5736 5734 5731 5729 5726 5724 5721 5719 5717 5716 5714 5713 5711 5709
5772 5772 5771 5768 5767 5765 5764 5763 5761 5759 5758 5756 5754 5753 5753 5752 5751 5748 5742 5738 5738 5741 5743 5745 5745 5744 5742 5739 5736 5735 5733 5731 5728 5725 5722 5720 5717 5715 5713 5712 5710 5708 5706
5775 5774 5771 5768 5767 5765 5764 5763 5760 5759 5758 5756 5755 5753 5752 5752 5752 5750 5745 5740 5734 5735 5738 5741 5745 5744 5742 5740 5737 5734 5732 5729 5726 5723 5720 5717 5715 5713 5711 5709 5707 5705 5703
5777 5774 5771 5769 5767 5765 5763 5761 5758 5757 5756 5754 5753 5752 5751 5751 5751 5751 5749 5745 5736 5729 5731 5737 5740 5743 5741 5739 5736 5733 5730 5727 5724 5721 5718 5715 5713 5710 5708 5706 5704 5701 5699
5776 5773 5770 5768 5766 5764 5762 5759 5757 5757 5755 5753 5752 5750 5749 5749 5750 5749 5748 5746 5743 5736 5731 5736 5738 5740 5739 5736 5733 5731 5728 5725 5722 5719 5716 5714 5711 5708 5705 5703 5701 5699 5697
5774 5772 5770 5767 5765 5763 5761 5758 5757 5755 5753 5752 5751 5749 5747 5747 5746 5746 5746 5744 5742 5738 5731 5734 5736 5736 5734 5732 5729 5727 5725 5722 5720 5717 5715 5712 5709 5706 5703 5701 5698 5696 5694
5772 5770 5768 5765 5763 5761 5759 5757 5755 5754 5751 5749 5748 5747 5745 5745 5744 5743 5741 5740 5739 5738 5732 5728 5730 5730 5729 5728 5726 5723 5722 5720 5718 5715 5713 5710 5707 5704 5701 5698 5695 5693 5690
5770 5768 5765 5762 5760 5759 5757 5755 5753 5752 5750 5748 5747 5744 5743 5741 5739 5739 5738 5736 5735 5735 5732 5727 5726 5726 5724 5724 5721 5719 5718 5717 5715 5713 5711 5708 5705 5702 5699 5696 5693 5690 5687
5766 5764 5762 5760 5758 5757 5755 5753 5751 5750 5748 5747 5746 5743 5741 5739 5737 5736 5734 5733 5731 5729 5726 5723 5722 5720 5719 5718 5715 5712 5711 5712 5711 5711 5708 5705 5702 5699 5696 5693 5690 5687 5684
5764 5762 5760 5757 5756 5754 5752 5749 5748 5747 5745 5744 5743 5741 5740 5738 5736 5733 5731 5729 5727 5723 5721 5718 5716 5714 5712 5710 5708 5708 5706 5706 5706 5706 5703 5701 5699 5696 5693 5690 5687 5685 5682
5760 5759 5756 5754 5751 5751 5749 5747 5744 5742 5740 5738 5737 5736 5735 5734 5731 5729 5727 5724 5722 5719 5716 5712 5710 5708 5707 5707 5705 5703 5700 5698 5696 5700 5698 5696 5696 5693 5692 5689 5687 5684 5681
5757 5754 5752 5750 5748 5746 5744 5741 5739 5737 5735 5733 5731 5729 5729 5730 5726 5724 5722 5720 5718 5716 5713 5710 5707 5706 5705 5705 5701 5698 5696 5694 5692 5695 5692 5690 5691 5689 5690 5689 5686 5683 5680
5752 5750 5748 5746 5744 5741 5738 5735 5733 5733 5731 5729 5727 5725 5722 5721 5720 5718 5716 5714 5713 5711 5709 5707 5706 5705 5704 5702 5700 5697 5694 5692 5692 5691 5688 5683 5686 5685 5687 5685 5683 5680 5677
5747 5745 5743 5741 5738 5735 5731 5729 5726 5726 5725 5723 5722 5719 5717 5714 5713 5711 5709 5707 5706 5705 5705 5703 5702 5700 5698 5696 5694 5690 5686 5682 5681 5683 5684 5680 5680 5680 5680 5680 5679 5677 5674
5741 5739 5737 5735 5733 5729 5725 5722 5719 5719 5717 5716 5715 5713 5711 5708 5705 5703 5701 5699 5697 5697 5697 5697 5695 5694 5692 5691 5688 5685 5682 5677 5675 5676 5679 5675 5674 5672 5671 5675 5673 5670 5667